Location: Home
(42.5358°N, 72.7383°W)
Time: 14:58:59
(UTC-05:00)

Vanguard 3 - Pass Details

Date: 29 November 2021
Orbit: 508 x 3260 km, 33.3° (Epoch: 20 January)

Event Time Altitude Azimuth Distance (km) Brightness Sun altitude
Rises 00:48:44 0° 174° (S) 6,952 - -64.4°
Exits shadow 00:59:22 10° 147° (SSE) 6,194 11.5 -63.1°
Reaches altitude 10° 00:59:31 10° 146° (SSE) 6,188 11.5 -63.1°
Maximum altitude 01:04:06 11° 133° (SE) 6,071 11.5 -62.5°
Drops below altitude 10° 01:08:36 10° 119° (ESE) 6,102 11.6 -61.9°
Sets 01:18:40 0° 91° (E) 6,705 12.1 -60.5°
